Location: Banios
(43.0451°N, 0.2335°E)
Time: 13:30:29
(UTC+00:00)

A-11 Canister half - Pass Details

Date: 17 May 2021
Orbit: 1513 x 1686 km, 47.2° (Epoch: 14 June)

Event Time Altitude Azimuth Distance (km) Brightness Sun altitude
Rises 15:58:23 0° 270° (W) 4,670 12.6 34.4°
Reaches altitude 10° 16:01:27 10° 273° (W) 3,679 12.4 33.8°
Maximum altitude 16:10:40 69° 356° (N) 1,606 9.7 32.1°
Drops below altitude 10° 16:19:58 10° 80° (E) 3,704 10.6 30.4°
Sets 16:23:04 0° 83° (E) 4,703 11.0 29.9°
